Reflectivity
17 -0 13 6 14 13 21 24 22 27 18 -18 23 19 1 12 0 16 10 0 -19 -20 -20 -20 -20 -20 -20 -20 -20 -20 -20 -20 -20 -20 -20 -20 4 1
13 -6 13 7 18 14 17 22 29 12 23 17 26 25 14 5 -15 -5 -7 -1 -20 -20 -20 -20 -20 -20 -20 -20 -20 -20 -20 -20 -20 -20 -20 -20 -20 -20
-9 -9 1 -3 -12 11 6 27 17 21 21 21 25 25 29 7 -12 -20 -20 -20 -20 -20 -15 -20 -20 -20 -20 -20 -20 -20 -20 -20 -20 -20 -20 -20 -20 -9
-20 10 -1 -18 -5 7 17 20 25 -5 21 29 22 25 26 24 4 -20 -20 -20 -20 -15 -20 -20 -20 -20 -20 -20 -20 -20 -20 -20 -20 -20 -20 -20 5 9
1 3 10 9 13 26 28 22 -4 20 24 27 27 31 23 20 -19 -11 -17 1 14 14 -14 -5 -13 -18 -10 10 9 -2 -20 -20 -20 -19 -20 -18 -3 6
-6 -16 6 10 -17 16 15 27 19 26 25 32 23 33 24 17 20 17 26 21 26 29 27 20 17 -13 -4 6 6 -7 -20 -20 4 4 -8 2 9 5
-20 -20 7 9 5 -17 19 29 6 23 29 29 33 32 21 16 20 25 26 24 14 -1 -13 4 -6 3 12 -12 -16 -18 -20 -7 13 29 22 12 18 14
16 -7 -20 14 18 17 16 24 23 22 22 24 30 28 24 25 20 27 33 25 21 15 12 19 28 27 -9 -20 3 5 -7 14 -7 -17 3 17 10 -2
10 -5 4 14 17 3 26 33 28 21 32 31 31 26 31 26 33 29 18 21 16 8 28 21 27 1 -13 14 8 1 -6 5 9 20 11 10 12 -18
-10 -5 -15 14 14 8 3 1 24 24 22 31 28 23 20 24 24 25 27 23 29 28 18 -1 10 -10 -4 9 12 2 9 5 15 13 18 13 8 -18
-6 -20 13 4 22 6 -0 8 22 32 36 34 38 37 33 35 32 18 15 21 -2 12 16 1 -5 13 17 10 18 17 10 15 14 17 19 -15 -20 -20
7 1 32 14 30 16 -5 -4 16 24 9 23 15 27 32 26 24 23 26 3 -16 12 -2 11 8 3 21 27 26 17 14 7 -16 -20 -20 -20 -20 -20
15 20 22 28 24 33 19 8 30 8 13 -2 -5 24 25 26 4 7 10 22 19 28 23 32 31 24 18 16 19 15 15 8 -0 -20 -20 -20 -20 -20
23 20 26 30 39 24 21 26 22 23 9 3 -11 12 17 22 27 23 36 29 31 37 29 23 22 20 21 19 14 11 8 5 -18 -20 -20 -20 -14 -5
26 27 23 24 29 32 25 25 24 16 21 21 15 19 18 15 15 21 20 21 20 24 24 21 19 22 13 10 5 2 3 -2 -19 -5 -11 -1 -2 -12
17 25 28 27 27 26 26 24 22 20 19 20 22 20 17 18 23 23 23 22 16 14 16 15 14 9 10 -0 -5 0 10 13 12 8 -5 -20 -20 -20
10 17 18 21 23 22 21 18 18 18 17 16 17 20 19 18 17 18 19 20 18 15 2 1 9 13 15 11 7 6 3 -12 -20 -20 -20 -20 -20 -20
-18 -20 -8 9 10 12 16 16 10 6 -2 -14 -11 -6 3 10 13 13 11 12 12 12 6 2 4 6 2 -3 -20 -20 -20 -20 -20 -20 -20 -20 -20 -20
-20 -20 -20 -20 -7 -9 -19 -3 9 10 2 -13 -2 -8 -17 -6 -7 -1 0 -1 -2 -3 -10 -16 -15 -16 -20 -20 -20 -19 -19 -20 -20 -20 -20 -20 -20 -20
-20 -20 -20 -20 -20 -20 -20 -20 -20 -20 -20 -20 -20 -20 -20 -20 -20 -18 -20 -20 -20 -20 -20 -20 -20 -20 -20 -20 -20 -20 -20 -20 -20 -20 -20 -20 -20 -20
-20 -20 -20 -20 -20 -20 -20 -20 -20 -20 -20 -20 -20 -20 -20 -20 -20 -20 -20 -20 -20 -20 -20 -20 -20 -20 -20 -20 -20 -20 -20 -20 -20 -20 -20 -20 -20 -20
-20 -20 -20 -20 -20 -20 -20 -20 -20 -20 -20 -20 -20 -20 -20 -20 -20 -20 -20 -20 -20 -20 -20 -20 -20 -20 -20 -20 -20 -20 -20 -20 -20 -20 -20 -18 -15 -17
-20 -20 -20 -20 -20 -20 -20 -20 -20 -20 -20 -20 -20 -20 -20 -20 -20 -20 -20 -20 -20 -20 -20 -20 -20 -20 -20 -20 -20 -20 -20 -20 -20 -20 -20 -20 -20 -20
Wind_Speed
9 10 10 10 10 11 10 9 11 8 10 6 4 12 9 8 10 10 11 13 18 17 17 17 17 18 17 16 16 16 17 17 17 16 16 17 17 17
7 9 9 7 8 9 10 9 8 8 7 4 6 5 9 8 9 11 11 13 15 16 17 17 17 17 15 14 12 13 12 12 12 13 12 11 15 16
7 9 12 11 8 9 9 9 7 6 5 2 3 4 6 9 7 9 7 7 7 14 13 13 9 7 8 8 9 9 8 10 10 12 12 14 17 18
10 10 11 7 11 10 9 11 9 6 4 5 3 3 7 7 8 8 6 5 3 1 5 7 9 8 6 4 5 6 7 5 6 3 4 3 6 7
10 10 9 11 10 9 10 10 8 7 7 5 4 3 3 3 3 3 5 7 8 15 17 15 14 13 11 10 9 9 11 12 12 12 10 11 13 11
8 8 10 12 12 11 11 11 10 9 8 7 5 3 3 2 3 3 3 3 4 6 13 10 14 15 13 12 12 12 13 15 15 14 15 13 13 15
7 7 8 11 15 14 10 12 12 11 9 8 6 5 4 3 6 4 6 6 5 5 7 6 5 6 7 11 14 14 15 16 14 16 15 15 15 16
6 6 5 7 8 9 9 10 10 12 12 8 8 9 12 9 5 7 8 5 4 4 5 4 3 7 5 6 14 14 16 15 15 14 14 14 14 13
3 1 4 3 7 8 13 13 14 13 4 9 12 11 11 11 8 7 8 5 4 4 5 4 3 6 4 7 14 15 15 14 13 12 11 11 8 9
7 5 3 4 5 6 9 9 10 11 6 4 4 4 3 3 2 3 5 7 6 4 2 5 2 3 4 4 13 14 14 13 13 9 9 11 9 9
10 9 6 5 6 12 10 10 10 11 14 19 18 18 17 12 5 4 4 6 3 2 2 4 3 4 2 3 4 11 12 12 13 8 8 8 7 7
11 12 18 13 11 8 8 8 10 6 8 7 6 11 13 14 17 8 3 3 4 3 0 5 5 3 4 2 3 4 4 10 11 10 9 8 6 2
10 9 9 20 18 18 15 10 8 10 10 9 8 8 9 10 9 9 9 5 3 4 0 3 4 4 3 5 4 2 2 2 2 4 9 7 5 4
9 8 13 24 25 20 15 20 16 9 9 9 9 9 8 10 9 10 11 11 11 9 4 2 4 2 5 4 4 3 3 3 3 3 3 5 5 5
9 16 23 22 22 17 23 19 13 8 8 9 8 9 8 7 5 6 7 10 13 12 8 8 6 3 3 6 5 3 3 2 3 4 3 3 3 2
10 11 11 13 16 12 11 12 9 9 8 8 7 6 4 4 6 4 4 4 7 8 12 13 10 6 6 6 6 5 3 2 2 3 4 3 2 0
6 8 8 8 9 8 9 10 9 8 9 8 8 7 7 6 7 5 6 7 7 5 7 8 11 11 8 8 6 5 3 3 3 3 1 3 2 3
8 7 8 8 8 7 7 8 8 9 8 7 7 6 6 6 6 6 7 7 7 6 6 4 2 3 4 8 9 4 4 3 2 3 3 3 3 4
8 7 7 7 6 7 7 7 7 7 7 7 6 6 5 6 6 6 6 6 7 6 6 5 6 2 3 3 2 11 3 2 2 4 3 4 5 7
7 6 6 6 6 7 7 7 6 6 6 7 6 5 5 6 6 6 6 5 5 5 6 6 6 5 2 1 2 1 8 5 4 5 4 3 6 13
6 7 6 6 6 6 5 5 6 6 5 5 5 6 5 5 6 5 6 7 6 5 5 5 4 4 2 1 2 2 3 12 9 5 5 3 4 4
5 6 5 5 5 5 4 3 5 5 5 5 5 4 4 5 5 5 5 6 6 5 4 3 5 3 3 3 2 2 3 4 9 11 9 6 4 4
4 5 5 4 4 5 5 5 5 4 5 4 4 4 4 4 4 5 5 5 5 4 4 3 3 4 4 4 3 2 4 5 5 7 5 14 15 11
Wind_Direction
216 226 230 231 221 210 204 195 193 188 196 186 171 203 205 192 206 204 210 204 210 215 218 221 224 225 225 225 227 230 237 242 243 247 251 256 266 271
214 229 242 238 211 216 204 193 204 190 192 159 198 160 200 205 202 203 213 210 206 213 218 219 223 226 225 228 231 236 244 248 252 254 258 264 268 269
223 237 247 237 211 196 200 184 175 170 168 173 133 155 198 209 202 202 202 203 214 213 219 223 231 211 211 207 221 226 231 244 248 244 252 261 268 270
232 232 234 208 196 180 183 180 186 169 140 153 131 176 200 209 194 180 188 196 151 84 204 195 187 197 207 195 209 224 230 244 262 296 315 301 286 293
223 225 224 200 204 194 193 184 178 174 162 143 159 167 175 157 156 161 163 110 84 99 83 78 90 93 98 99 98 94 92 96 89 85 85 78 79 73
223 221 225 204 196 190 188 185 176 165 171 169 171 170 177 160 125 142 138 119 131 81 76 86 83 85 86 89 95 99 101 99 94 92 82 73 72 74
217 217 221 218 195 188 188 191 188 182 177 185 197 193 188 174 195 176 192 144 121 130 121 119 115 98 87 80 87 86 88 86 89 85 81 77 73 73
207 193 203 199 205 181 188 171 184 177 188 184 198 206 209 210 175 187 190 160 158 179 120 97 113 95 93 82 91 90 88 84 89 88 87 85 85 86
61 189 143 88 130 115 91 78 63 56 37 209 209 210 210 199 177 174 186 179 145 141 121 105 85 97 98 106 102 95 89 89 87 77 82 83 76 77
41 23 73 78 87 123 111 88 69 46 23 43 60 89 55 20 147 162 144 105 78 55 60 114 139 107 108 106 108 101 97 89 80 81 83 74 65 58
33 31 31 56 90 120 110 105 98 86 61 66 69 72 69 65 27 114 129 140 120 126 25 104 139 104 56 75 71 88 94 90 83 77 68 85 77 69
35 40 40 53 60 79 103 113 106 100 91 67 46 40 48 50 41 40 23 110 117 113 229 108 133 146 126 93 55 68 74 80 74 61 62 53 84 85
39 41 41 59 63 70 74 86 90 106 87 75 59 55 38 37 46 41 36 49 82 65 90 125 142 139 82 127 116 33 93 71 60 49 43 36 47 50
47 33 53 53 61 56 67 78 76 78 81 76 72 59 51 54 27 45 55 54 57 67 4 73 105 120 127 134 136 151 84 73 69 58 30 13 22 13
46 52 55 52 47 43 52 49 59 62 76 79 75 76 62 51 40 52 36 64 66 56 28 27 73 96 114 123 130 133 152 73 58 49 28 29 25 5
34 45 45 50 54 54 43 45 46 52 70 72 69 68 56 58 54 45 49 39 62 52 45 43 49 55 72 67 88 98 72 101 30 26 16 1 353 12
46 42 41 43 47 40 44 48 42 39 56 62 70 65 63 55 44 45 51 56 66 56 50 45 61 67 74 99 81 95 124 97 41 15 10 345 324 343
46 45 42 43 45 42 44 47 41 41 39 51 58 61 61 64 67 58 62 72 79 71 67 48 53 105 89 65 63 73 53 42 15 356 6 337 311 327
52 39 44 38 39 44 47 45 48 32 39 48 53 59 66 69 74 74 72 76 78 78 63 48 48 58 91 97 72 57 68 54 355 351 339 341 307 308
52 49 47 45 41 45 49 45 44 47 42 46 46 42 52 68 70 69 69 77 79 73 66 52 47 32 40 103 131 78 56 45 21 348 331 309 282 288
43 49 39 45 47 48 39 45 50 49 40 48 40 46 35 74 73 70 71 60 69 66 63 42 7 331 110 120 51 13 2 15 14 352 325 309 327 328
43 57 48 48 46 56 40 34 51 41 38 41 39 42 46 59 70 75 67 65 59 54 49 27 12 22 63 73 56 5 6 341 343 352 1 24 352 317
38 57 46 38 42 47 51 51 53 39 42 40 41 44 36 61 64 71 74 72 70 62 41 37 24 35 51 53 47 21 10 358 349 347 352 349 338 325